Tracking 22283 objects as of 28-Jan-2021
HD Live streaming from Space Station
objects crossing your sky now

METEOR 2-8 DEB

Track METEOR 2-8 DEB now!
10-day predictions


NORAD ID: 36319
Int'l Code: 1982-025D
Perigee: 834.2 km
Apogee: 874.9 km
Inclination: 82.5 °
Period: 101.9 minutes
Semi major axis: 7225 km
RCS: 0.0062 m2 (small)
Launch date: March 25, 1982
Source: Commonwealth of Independent States (former USSR) (CIS)
Launch site: PLESETSK MISSILE AND SPACE COMPLEX (PKMTR)

Note: This is SATELLITE DEBRIS
aabbcc
Your satellite tracking list
Your tracking list is empty




NASA's NSSDC Master Catalog

Two Line Element Set (TLE):
1 36319U 82025D   21027.29208752  .00000538  00000-0  27637-3 0  9990
2 36319  82.5348  31.5800 0028119  62.9465 297.4576 14.13503928915612
Source of the keplerian elements: AFSPC